Theta_e
314 314 316 314 314 315 316 317 317 319 316 318 320 321 320 320 317 316 315 315 314 314 313 311 312 312 313 314 314 314 315 315 314 312 311 310 308 308 312 309 308 307 308 310
314 314 314 314 315 315 315 318 319 317 316 316 319 319 320 317 313 312 313 312 312 312 312 310 310 311 312 312 312 313 314 313 312 311 311 308 307 310 310 309 307 307 310 311
311 312 313 314 313 314 314 316 318 316 315 316 318 324 318 315 312 310 310 310 310 310 310 309 310 310 311 311 311 312 312 312 311 311 310 307 308 312 310 309 308 308 311 312
312 312 312 313 313 313 313 314 315 315 315 321 318 336 323 318 315 312 309 308 308 309 308 307 308 309 310 310 311 311 311 310 310 309 307 307 311 313 309 309 308 308 311 313
312 312 313 313 312 314 314 314 315 315 318 320 321 326 326 316 318 311 308 307 306 307 307 307 308 308 309 309 309 309 309 309 309 307 306 308 311 311 310 309 308 309 311 313
312 310 313 313 311 312 313 315 316 317 319 325 323 324 331 316 309 309 307 305 304 304 306 307 307 308 308 308 308 308 308 307 307 306 306 309 311 311 311 310 309 310 311 313
311 312 311 311 313 312 314 316 323 324 324 324 314 318 318 308 307 305 305 303 303 302 303 304 306 307 307 307 307 307 307 306 305 305 306 309 311 311 309 311 311 310 311 312
310 308 311 312 315 315 315 317 324 326 325 322 312 319 316 305 304 303 303 302 301 301 300 300 301 302 304 305 306 307 307 306 305 304 305 308 311 311 310 310 312 312 312 312
307 309 309 310 311 314 315 316 313 313 310 315 316 313 307 306 304 303 302 301 299 298 298 298 298 299 302 304 305 306 306 306 306 304 304 306 309 311 311 310 310 311 313 312
312 312 309 309 310 310 313 314 316 317 320 317 314 313 316 308 306 302 301 299 298 298 297 296 296 296 299 302 303 304 305 306 306 306 303 304 306 308 310 311 311 310 311 313
315 315 310 310 312 312 312 313 313 314 314 312 311 312 306 306 303 301 299 298 297 297 296 295 295 294 296 298 301 302 303 304 304 304 304 303 304 305 307 310 310 311 311 312
315 317 314 310 308 309 310 311 313 311 313 312 312 312 303 302 300 300 298 297 296 295 295 294 294 293 295 296 297 299 300 301 302 302 303 303 303 303 304 305 308 309 311 311
314 314 319 315 313 310 311 311 311 311 311 313 313 311 302 300 299 298 298 296 295 295 294 294 293 293 293 295 296 296 297 298 299 300 301 302 302 302 303 304 305 307 309 310
312 313 317 319 316 313 311 311 311 311 314 312 312 308 303 302 300 298 296 295 295 294 293 293 292 292 293 294 295 295 296 297 297 297 298 299 301 301 301 302 303 304 306 308
309 314 312 311 310 311 311 310 311 311 312 313 313 311 306 303 300 297 296 295 294 293 292 291 291 292 294 295 296 297 297 298 298 298 298 298 297 297 298 300 300 301 302 304
306 311 310 310 310 310 312 310 311 311 311 311 309 305 304 300 297 297 295 294 293 291 289 288 288 288 288 289 291 293 295 296 296 297 297 298 298 298 298 297 297 298 299 300
307 309 311 313 308 310 313 308 307 305 303 305 312 304 299 298 297 295 294 293 292 290 288 287 286 286 286 286 286 286 286 286 288 289 290 291 293 294 296 297 297 298 298 298
303 307 308 311 308 315 303 300 301 304 300 300 300 299 300 297 294 292 292 291 289 288 287 286 286 286 285 285 285 285 285 285 285 285 285 285 285 286 286 287 289 292 295 297
300 304 305 310 309 304 302 300 301 303 301 298 298 297 296 294 293 292 291 289 287 286 286 285 285 285 284 284 284 284 285 285 285 285 285 285 285 285 285 285 285 285 286 287
299 301 305 306 307 308 302 297 296 297 305 296 296 296 296 294 297 295 290 288 286 286 285 284 284 283 283 284 284 284 284 284 284 284 284 284 284 284 284 284 285 285 285 285
300 300 303 305 306 304 297 295 295 304 301 294 294 293 296 296 294 291 288 286 286 285 285 284 283 283 283 283 283 283 283 283 283 283 283 283 283 284 284 284 284 284 284 284
298 300 300 300 302 303 295 295 300 296 294 293 292 292 291 291 289 287 286 286 286 285 285 284 283 283 283 283 283 283 283 283 283 282 282 282 282 282 283 283 283 283 283 283
296 298 301 300 301 294 296 294 294 293 293 292 292 291 290 289 288 287 286 286 285 285 284 283 283 283 283 283 283 283 282 282 282 282 282 282 282 282 281 282 282 282 282 282
291 288 294 293 293 292 292 292 292 292 293 291 291 289 288 288 287 286 286 285 285 284 283 283 282 282 281 281 281 281 281 280 280 280 280 280 281 281 281 280 280 280 280 280
291 290 292 292 289 290 291 292 292 291 289 288 288 288 287 287 287 286 286 285 285 284 283 282 282 281 281 281 281 280 279 279 279 279 279 279 279 279 279 279 279 279 278 278
287 290 292 294 292 292 291 292 292 290 288 288 288 288 288 287 286 286 286 285 285 284 283 283 282 281 281 281 281 279 279 279 278 278 278 278 278 278 277 277 279 278 277 278
Wind_Speed
15 9 12 16 14 4 2 4 5 2 3 4 7 10 13 13 7 10 12 13 14 15 13 14 10 4 4 9 12 14 14 13 10 7 5 7 8 10 11 10 8 4 3 5
5 13 10 5 8 10 5 3 3 1 0 3 8 12 3 8 10 15 16 18 19 18 17 16 12 8 8 9 11 12 13 11 9 6 4 6 8 9 10 8 5 1 4 4
8 1 9 11 8 8 9 9 3 4 4 6 8 7 9 9 14 17 19 18 20 21 19 17 14 12 11 10 10 11 10 8 5 2 4 5 7 8 8 7 3 1 4 3
6 4 11 13 12 12 11 9 11 8 3 5 2 2 2 7 8 15 20 21 20 22 19 16 14 13 12 11 11 11 8 5 1 3 5 5 4 5 6 5 2 3 4 3
4 7 9 13 12 11 3 4 9 8 9 6 6 3 3 3 2 12 18 20 20 20 19 17 15 14 12 11 10 9 6 2 2 3 4 5 4 6 5 3 2 4 5 2
5 1 4 2 3 11 10 7 6 3 3 4 4 4 5 2 4 9 14 17 19 19 18 17 15 14 13 10 9 7 5 4 4 5 5 5 5 5 4 3 2 2 5 4
4 4 2 3 8 5 7 9 2 4 4 4 2 4 5 4 7 8 11 15 17 17 17 17 16 14 13 10 9 7 6 6 6 7 7 6 6 6 4 2 3 3 4 5
9 5 9 9 5 6 13 9 4 5 4 3 2 6 3 7 7 8 11 13 15 17 16 16 16 14 12 10 9 7 7 6 6 8 8 7 7 6 6 5 4 4 5 7
9 6 2 1 1 2 6 6 3 4 1 1 5 4 6 7 8 10 13 14 16 16 16 17 16 14 12 10 9 8 6 7 6 7 8 8 7 7 7 7 8 8 9 10
1 4 2 2 2 2 2 3 3 2 3 5 4 3 2 8 6 8 11 14 14 14 16 17 17 16 14 12 9 8 7 8 7 7 7 8 8 8 9 9 10 10 11 10
6 2 3 3 8 10 4 3 3 2 2 2 2 3 5 8 6 7 10 12 13 15 16 16 16 16 15 13 12 11 10 9 7 7 6 6 7 7 8 9 11 11 12 10
4 1 3 4 3 4 4 8 10 4 5 2 2 2 4 8 8 8 9 10 12 14 15 15 16 16 17 17 17 16 14 13 12 10 8 7 7 6 6 9 9 11 11 12
8 2 4 1 2 1 5 8 5 1 2 5 3 3 6 8 9 7 8 9 10 12 14 15 16 18 19 19 18 18 19 18 17 15 12 10 10 10 10 10 10 11 12 13
3 2 2 1 4 1 5 8 9 10 4 4 7 6 11 9 8 8 7 7 9 11 12 13 14 16 17 18 18 18 19 20 19 18 18 16 13 12 13 13 13 13 14 15
3 2 2 2 3 4 4 2 7 13 12 6 4 4 11 10 8 8 6 6 7 9 12 13 14 15 15 16 17 17 18 19 19 19 20 20 19 17 16 14 14 14 14 15
1 2 2 2 3 3 2 2 1 1 1 5 6 4 7 11 10 7 6 6 7 9 10 11 12 13 15 17 17 17 18 18 19 19 19 19 19 19 20 19 18 17 15 15
1 3 2 3 1 3 4 3 1 3 4 2 5 4 10 9 8 6 6 6 6 7 9 10 11 12 15 17 18 18 19 20 20 21 21 21 21 22 22 21 20 20 20 19
2 2 2 3 0 5 3 2 1 4 3 5 9 8 7 11 10 8 5 4 4 4 6 7 8 10 13 15 16 17 19 20 22 23 24 24 25 25 25 26 26 25 23 22
6 1 3 2 3 1 3 4 4 5 4 4 8 9 11 13 11 5 3 3 2 2 3 5 7 9 11 13 14 16 18 20 22 24 26 27 28 28 28 27 27 28 29 28
4 4 1 2 3 5 3 5 3 1 3 11 10 9 13 13 4 4 6 2 1 2 2 4 5 6 8 11 14 16 18 21 24 26 28 29 30 31 33 33 32 31 29 29
2 1 2 4 4 0 5 8 5 5 3 13 11 11 14 7 2 9 5 1 2 1 2 3 5 7 9 13 16 19 21 24 26 28 29 30 31 33 33 34 34 35 35 34
4 6 3 2 4 7 12 8 5 4 15 14 12 10 9 7 7 5 2 2 3 3 4 4 6 9 12 16 20 23 26 29 32 33 33 32 31 31 32 33 33 34 34 35
3 3 1 4 0 2 15 2 6 11 15 11 11 9 8 8 6 4 3 4 5 6 7 7 8 11 14 18 21 25 29 32 35 35 35 35 34 33 31 32 32 33 33 34
5 4 2 1 5 5 8 7 10 9 10 10 9 10 9 7 6 5 5 6 7 9 10 11 12 14 17 19 22 27 31 33 33 33 32 32 33 33 34 34 34 33 32 33
2 10 6 4 3 3 13 14 13 13 12 13 11 10 8 7 7 6 7 8 10 12 14 15 17 19 21 25 29 33 35 36 35 35 35 35 35 36 36 34 34 35 35 33
12 7 6 4 11 7 5 23 19 19 18 16 13 11 8 6 7 8 9 12 14 16 17 18 20 23 25 28 31 33 34 34 35 35 35 35 37 38 38 40 42 39 37 35
Wind_Direction
184 179 200 204 212 112 107 230 253 45 53 312 272 285 299 314 41 42 40 33 28 21 11 8 9 17 141 162 177 190 197 206 214 227 260 301 315 324 329 335 340 353 94 104
163 224 207 170 177 199 213 160 190 169 172 302 300 292 360 102 78 54 37 33 22 16 17 22 36 53 96 131 157 170 183 186 197 211 267 305 318 322 330 338 342 47 128 120
197 76 169 190 195 209 231 234 237 292 326 243 285 252 155 136 75 52 40 31 24 18 15 25 40 63 85 110 134 153 162 173 190 240 300 319 324 332 349 343 350 185 153 117
230 109 190 193 204 203 220 217 235 239 262 260 314 267 206 159 105 43 29 23 17 17 19 29 48 63 87 106 129 139 146 154 188 317 327 338 334 330 318 318 321 189 182 154
136 170 172 200 201 191 193 153 197 212 224 288 206 251 132 157 180 20 18 17 16 21 26 31 48 68 83 99 111 122 128 116 3 339 344 336 338 330 326 330 319 188 194 199
94 115 188 116 96 197 137 126 121 167 218 244 187 241 147 45 355 355 13 17 19 22 31 47 51 60 67 78 91 88 74 43 15 4 354 345 335 336 332 345 350 218 209 220
122 155 141 170 114 128 190 177 138 194 201 234 131 214 57 82 37 21 12 20 22 29 34 41 50 50 55 60 60 60 50 31 12 6 358 352 335 336 318 318 316 291 253 248
174 202 187 178 226 172 198 216 224 211 194 158 142 220 111 89 66 53 45 35 33 32 35 40 41 45 52 52 49 45 29 23 8 3 358 354 338 328 326 296 276 280 275 256
185 159 101 222 240 167 172 222 22 108 98 269 177 112 132 131 76 55 48 42 36 34 32 34 36 41 46 49 37 24 15 356 356 352 354 350 337 323 309 300 283 269 269 267
96 122 209 101 222 141 277 147 173 230 192 215 176 232 80 195 55 52 44 39 36 37 39 36 34 34 37 36 30 17 5 345 342 335 339 346 341 328 313 301 297 287 281 283
321 318 124 169 211 188 165 189 226 253 291 249 196 131 16 97 77 67 49 41 38 36 35 37 39 36 35 37 32 21 9 354 343 331 327 327 327 326 317 307 301 298 296 290
163 190 164 186 40 339 301 238 204 221 189 249 1 126 93 100 90 85 74 54 43 41 40 36 32 37 41 38 35 31 25 18 11 357 334 310 299 302 311 313 297 290 286 283
164 175 138 135 199 166 231 208 238 224 334 197 196 130 133 125 113 86 78 64 54 47 41 35 31 28 31 35 36 32 29 29 26 19 6 346 326 317 306 295 290 284 280 275
47 155 297 281 47 356 187 203 209 222 239 231 235 142 181 167 140 119 91 66 48 38 34 31 28 25 23 23 25 28 29 28 28 26 22 12 1 345 330 315 303 297 290 282
60 125 104 69 58 39 60 132 205 221 233 255 332 74 161 160 141 117 102 70 54 40 31 26 21 20 18 17 16 16 19 17 18 17 18 16 14 10 358 342 325 310 297 288
337 112 107 79 76 53 98 87 64 10 330 266 152 115 101 118 131 122 96 77 56 42 32 23 21 19 22 21 20 16 17 14 11 8 8 6 2 2 3 0 354 342 327 309
66 139 186 121 60 135 228 164 148 107 63 345 227 89 142 144 134 125 104 78 57 36 22 18 19 16 19 20 22 22 22 21 19 15 12 9 4 360 357 354 351 347 344 339
108 95 360 112 176 223 85 77 227 107 104 96 104 129 142 137 124 117 104 98 75 39 19 16 20 21 23 24 24 22 20 19 18 16 13 10 8 5 1 357 351 347 344 340
29 84 115 190 211 44 184 194 169 197 160 164 140 136 130 131 125 117 130 109 87 36 25 26 27 27 25 21 18 14 8 6 3 1 359 356 353 351 349 348 348 346 343 341
38 40 325 170 214 228 80 139 118 130 231 168 153 146 155 158 202 138 172 161 358 4 20 25 21 19 15 11 6 360 354 350 348 346 344 341 338 336 334 333 332 331 330 329
108 109 220 197 238 153 134 142 143 180 142 154 153 149 156 183 78 144 164 208 283 293 326 354 3 359 356 352 350 347 343 341 339 336 333 331 329 327 325 323 323 322 321 319
181 171 187 136 215 248 151 130 209 121 137 151 156 158 157 146 146 152 189 258 289 299 306 320 332 337 337 337 338 338 336 334 332 330 329 328 327 326 325 323 322 321 321 319
224 249 187 235 308 116 178 79 165 151 158 165 161 164 160 160 169 192 230 264 269 274 284 298 310 320 322 323 328 328 326 325 324 324 325 326 326 326 326 324 323 322 321 321
217 183 237 296 169 197 199 196 177 167 166 167 167 171 172 176 196 227 261 271 277 281 283 290 297 304 308 314 321 321 321 321 321 321 322 322 322 322 322 322 323 322 321 320
55 160 189 254 217 205 231 211 197 185 181 181 181 187 195 209 231 249 274 284 283 280 284 289 296 304 312 319 322 321 321 320 322 323 324 324 324 323 322 320 319 318 318 317
191 184 187 211 186 190 194 215 195 196 198 200 201 207 216 238 255 275 291 298 295 292 293 293 297 303 309 313 315 315 314 316 319 319 320 320 320 320 320 320 318 316 315 313